Home   Weather   Aleppo   Past weeks

Flag for Syria Past Weather in Aleppo, Syria — Yesterday and Last 2 Weeks

Now
69 °F

Passing clouds.


Feels Like: 69 °F
Forecast: 58 / 84 °F
Wind: 2 mph from Southeast

Location: Iskenderun

Current Time: Apr 28, 2017 at 3:59:21 am

Latest Report: Apr 28, 2017 at 3:00 am


Visibility: 9 mi

Pressure: 29.92 "Hg

Humidity: 70%

Dew Point: 59 °F

Location of AleppoLocation

Past Weather in Aleppo — Graph

°F

Aleppo Temperature Yesterday

Maximum temperature yesterday: 81 °F (at 4:00 pm)
Minimum temperature yesterday: 64 °F (at 6:00 am)
Average temperature yesterday: 74 °F

High & Low Weather Summary for the Past Weeks

 TemperatureHumidityPressure
High88 °F (Apr 23, 3:00 am)93% (Apr 14, 6:00 am)30.14 "Hg (Apr 14, 6:00 am)
Low58 °F (Apr 25, 6:00 am)19% (Apr 23, 3:00 am)29.47 "Hg (Apr 23, 3:00 am)
Average68 °F60%29.97 "Hg
* Reported Apr 13 12:00 am — Apr 28 12:00 am, Aleppo, Weather by CustomWeather, © 2017

Note: Actual official high and low records may vary slightly from our data, if they occured in-between our weather recording intervals... More about our weather records

Advertising

Aleppo Weather History for the Previous 24 Hours

Scroll right to see more
 ConditionsComfort  
Time TempWeatherWind HumidityBarometerVisibility
12:00 am
Fri, Apr 28
72 °FOvercast.3 mph57%29.95 "Hg9 mi
9:00 pm
Thu, Apr 27
76 °FPassing clouds.2 mph34%29.92 "Hg9 mi
8:00 pm76 °FPassing clouds.No wind35%29.92 "Hg9 mi
7:00 pm80 °FPartly sunny.No wind25%29.91 "Hg9 mi
6:00 pm80 °FPartly sunny.No wind23%29.92 "Hg9 mi
5:00 pm81 °FOvercast.1 mph19%29.92 "Hg9 mi
4:00 pm81 °FOvercast.1 mph20%29.93 "Hg9 mi
3:00 pm79 °FOvercast.1 mph32%29.93 "Hg9 mi
2:00 pm78 °FOvercast.1 mph32%29.94 "Hg9 mi
1:00 pm76 °FPartly sunny.1 mph38%29.96 "Hg9 mi
12:00 pm73 °FPartly sunny.2 mph55%29.96 "Hg9 mi
11:00 am71 °FPartly sunny.1 mph60%29.97 "Hg9 mi
10:00 am70 °FPartly sunny.3 mph58%29.98 "Hg9 mi
9:00 am69 °FPartly sunny.1 mph62%29.98 "Hg12 mi
6:00 am64 °FSunny.1 mph39%29.95 "Hg12 mi
3:00 am65 °FClear.No wind39%29.96 "Hg12 mi
Weather by CustomWeather, © 2017

See weather overviewHow to use our weather pages